Showing default

OPS 1920, 2481

Orbit data source: Space-Track

OPS 1920, 2481 is a payload satellite owned by USAF SSD (US) in LEO that was launched on Wed, 05 Oct 1966 UTC via an ATLAS SLV-3 AGENA D launch vehicle from the Air Force Western Test Range (AFWTR). Payload-class satellites include a variety of spacecraft equipped with specific instruments for various scientific and technological missions. These include communications satellites like Starlink; space stations such as the ISS; scientific satellites like the Hubble; Earth observation satellites from companies like Planet Labs, Umbra, and HawkEye 360; GPS; miniature CubeSats for education and research; and military/defense satellites.

Loading next visibility...
Identifier
2481, 1966-089A
Orbit
LEO
Country
Flag of USUS
Related business
Manufacturer
LMSC
Mission
Spacecraft
Bus & Motor
MIDAS, Unknown motor
Mass
~2,000 kg wet, ~1,000 kg dry
Launch date (UTC)
1966-10-05 (60 years ago)
Launch vehicle
ATLAS SLV-3 AGENA D
Launch site
Air Force Western Test Range (AFWTR)
Object type
Payload
Rocket body
Debris
Shape & HBR
Unknown
Radar Cross Section
Large (>1 m²)

Expand to show TLE details & history
Last TLE update: 12 hours ago

TLE from 12 hours ago
0 OPS 1920
1 02481U 66089A   26128.08354575 -.00000004  00000-0 -29982-2 0  9998
2 02481  89.8521  31.5965 0033072   1.8824 358.2147  8.59254686869227
Epoch: 2026-05-08T02:00Z
TLE epoch observation values (Epoch: 2026-05-08T02:00:18.352Z)
Latitude
-0.00006°
Longitude
135.59961°
Altitude
3,659.782 km
Speed
6.313 km/s
True Right ascension
02h 06m 23s
True Declination
0° 00' 00"
Sunlit
Object was in daylight at epoch
Visualization orbit readout
Latitude
Unknown
Longitude
Unknown
Altitude
Unknown
Speed
Unknown
Apparent Right ascension
Unknown
Apparent Declination
Unknown
Sunlit
N/A
Visualization observer readout
Local Sidereal Time
22:35:02
Azimuth
Unknown
Elevation
Unknown
Doppler factor
Unknown
Orbital elements
Apogee altitude
3,721.996 km
Perigee altitude
3,655.41 km
Semi-major axis
10,066.84 km
Eccentricity
0.00331
Inclination
89.8521°
RAAN
31.5965°
Arg. of periapsis
1.8824°
True anomaly
358.20284°
Mean anomaly
358.2147°
Eccentric anomaly
358.20878°
Mean motion
2.14884 °/min
Orbital period
167.53 mins
BSTAR
-0.0029982
Loading maneuver chart data...
Computing Atmospheric mass density...
Loading historical data...
Loading historical data...
Loading historical data...
Loading historical data...
Loading historical data...
Loading historical data...
Loading historical data...
Other satellites on launch #89 in the year 1966 (1966-10-05 UTC)

Documentation

Showing up to 5 results
|